Location: Braden Valley Church
(38.0012°N, 88.6106°W)
Time: 02:12:07
(UTC+00:00)

Cosmos 1666 - Pass Details

Date: 08 December 2021
Orbit: 494 x 516 km, 82.5° (Epoch: 21 January)

Event Time Altitude Azimuth Distance (km) Brightness Sun altitude
Rises 23:20:22 0° 357° (N) 2,586 6.1 -9.0°
Reaches altitude 10° 23:22:31 10° 2° (N) 1,698 5.1 -9.3°
Maximum altitude 23:26:10 57° 81° (E) 590 2.6 -10.0°
Drops below altitude 10° 23:29:48 10° 161° (SSE) 1,686 5.3 -10.7°
Sets 23:31:56 0° 165° (SSE) 2,565 6.3 -11.1°
